Location: Paderno d�Adda
(45.6667°N, 9.4333°E)
Time: 10:10:09
(UTC+00:00)

ATLAS 3B R/B - Pass Details

Date: 21 January 2021
Orbit: 1006 x 1189 km, 63.8° (Epoch: 24 February)

Event Time Altitude Azimuth Distance (km) Brightness Sun altitude
Rises 18:03:39 0° 309° (NW) 3,904 6.3 -19.1°
Reaches altitude 10° 18:07:17 10° 291° (WNW) 2,978 5.9 -19.7°
Maximum altitude 18:11:33 17° 254° (WSW) 2,516 5.6 -20.5°
Drops below altitude 10° 18:15:54 10° 216° (SW) 3,044 5.6 -21.2°
Sets 18:19:43 0° 198° (SSW) 4,027 6.0 -21.9°
